Hourly Data Report for May 02, 2012

All times are specified in Local Standard Time (LST). Add 1 hour to adjust for Daylight Saving Time where and when it is observed.

OTTAWA INTL A
ONTARIO

45°19'00.000" N
75°40'00.000" W
114.90 m
6106001
71628
YOW

Related Data

No related data is available for this station

Download Data

Hourly Data (May 2012)
Hourly Data Report for May 2, 2012
Temp Definition
°C
Dew Point Temp Definition
°C
Rel Hum Definition
%
Wind Dir Definition
10's deg

Wind Spd Definition
km/h
Visibility Definition
km
Stn Press Definition
kPa
Hmdx Definition


Wind Chill Definition


Weather Definition


TIME
00:00 Legend Double Dagger 8.9 8.8 99 9 10 0.8 100.45     Fog
01:00 Legend Double Dagger 8.8 8.7 99 11 7 4.8 100.47     Fog
02:00 Legend Double Dagger 8.7 8.6 99 8 9 0.8 100.48     Fog
03:00 Legend Double Dagger 8.7 8.6 99 5 9 0.4 100.51     Fog
04:00 Legend Double Dagger 8.6 8.5 99 5 10 0.0 100.52     Fog
05:00 Legend Double Dagger 8.5 8.5 100 8 9 0.4 100.50     Fog
06:00 Legend Double Dagger 8.6 8.6 100 9 9 0.4 100.57     Fog
07:00 Legend Double Dagger 8.8 8.8 100 7 11 1.2 100.64     Fog
08:00 Legend Double Dagger 9.0 9.0 100 9 17 1.2 100.60     Fog
09:00 Legend Double Dagger 9.6 9.5 99 9 15 4.0 100.66     Fog
10:00 Legend Double Dagger 10.2 9.4 95 6 9 4.8 100.73     Fog
11:00 Legend Double Dagger 11.1 9.9 92 9 15 8.1 100.60     Fog
12:00 Legend Double Dagger 14.2 10.7 79 7 19 10.0 100.55     LegendNANA
13:00 Legend Double Dagger 14.5 10.0 74 7 20 10.0 100.45     Mostly Cloudy
14:00 Legend Double Dagger 15.3 9.3 67 8 24 10.0 100.39     LegendNANA
15:00 Legend Double Dagger 15.9 9.6 66 8 22 10.0 100.31     LegendNANA
16:00 Legend Double Dagger 15.4 9.4 67 10 23 10.0 100.29     Mostly Cloudy
17:00 Legend Double Dagger 14.6 9.9 73 8 19 10.0 100.23     LegendNANA
18:00 Legend Double Dagger 13.7 9.8 77 7 22 10.0 100.21     LegendNANA
19:00 Legend Double Dagger 12.5 9.5 82 6 22 10.0 100.20     Rain
20:00 Legend Double Dagger 11.2 10.0 92 5 18 9.7 100.25     Rain,Fog
21:00 Legend Double Dagger 10.8 10.0 95 6 21 9.7 100.17     Rain,Fog
22:00 Legend Double Dagger 10.8 10.0 95 7 17 10.0 100.12     Cloudy
23:00 Legend Double Dagger 10.8 10.2 96 7 10 10.0 100.15     LegendNANA

Notes on Data Quality.

Legend

  • E = Estimated
  • M = Missing
  • NA = Not Available
  • ‡ = Partner data that is not subject to review by the National Climate Archives
Date modified: